Retour au catalogue

SL-8 R/B

ActifLEO
NORAD 17146·ROCKET BODY·🇷🇺 Russia

Lancé Nov 21, 1986 depuis Plesetsk Cosmodrome

Loading…

Prochains Passages (prochaines 24 heures)

TLE

FraisSource: Space-Track

Époque: Sep 14, 2026, 21:25 UTC

1 17146U 86092J   26257.89282534  .00000052  00000-0  60263-3 0  9994
2 17146  74.0146  46.8088 0124416   3.5014 164.5196 12.23672463778682

Suivez SL-8 R/B en temps réel avec AllMySat

Download on the App Store